This demonstration page uses our WeatherBlox Daily Observations layout. Learn more.

Left ArrowRight Arrow

38.80484, -77.04692

Hourly Observations for August 16, 2021

Temp ( °F °C ) Dew Point ( °F °C ) Humidity (%) Winds ( mph kmh ) Pressure ( in mb ) Visibility ( mi km ) Precip ( " mm )
12:52 am 00:52 Cloudy 79 26.1 64 17.8 60 60 E 3 6 30.16 1021 10 16 N/A
1:52 am 01:52 Cloudy 78 25.6 67 19.4 69 69 SSE 6 9 30.16 1021 10 16 0.00 0.00
2:52 am 02:52 Cloudy 76 24.4 68 20 77 77 SE 6 9 30.15 1021 10 16 0.00 0.00
3:52 am 03:52 Cloudy 76 24.4 69 20.6 79 79 ESE 5 7 30.14 1021 10 16 N/A
4:52 am 04:52 Cloudy 76 24.4 68 20 77 77 SSE 5 7 30.14 1021 10 16 N/A
5:52 am 05:52 Cloudy 76 24.4 68 20 77 77 S 5 7 30.15 1021 10 16 N/A
6:52 am 06:52 Cloudy 75 23.9 67 19.4 76 76 SSE 7 11 30.16 1021 10 16 N/A
7:52 am 07:52 Cloudy 76 24.4 67 19.4 74 74 ESE 5 7 30.17 1022 10 16 N/A
8:52 am 08:52 Cloudy 76 24.4 66 18.9 72 72 ESE 7 11 30.17 1022 10 16 N/A
9:52 am 09:52 Cloudy 77 25 68 20 74 74 SE 5 7 30.17 1022 10 16 N/A
10:37 am 10:37 Cloudy with Light Rain 77 25 68 20 74 74 SSW 9 15 30.19 1022 5 8 0.00 0.00
10:45 am 10:45 Cloudy with Heavy Rain 74 23.3 69 20.6 85 85 SW 8 13 30.19 1022 2 3 0.10 2.54
10:52 am 10:52 Cloudy with Rain 73 22.8 70 21.1 90 90 SW 6 9 30.19 1022 2 2 0.17 4.32
10:58 am 10:58 Cloudy with Rain 73 22.8 70 21.1 90 90 WSW 3 6 30.19 1022 3 4 0.02 0.51
11:19 am 11:19 Cloudy with Heavy Rain 73 22.8 69 20.6 87 87 N N/A 30.20 1023 1 2 0.08 2.03
11:28 am 11:28 Cloudy with Light Rain 73 22.8 69 20.6 87 87 WSW 3 6 30.20 1023 4 6 0.29 7.37
11:35 am 11:35 Cloudy with Light Rain 73 22.8 70 21.1 90 90 N N/A 30.20 1023 6 10 0.29 7.37
11:52 am 11:52 Cloudy 75 23.9 70 21.1 84 84 N N/A 30.19 1022 10 16 0.29 7.37
11:58 am 11:58 Cloudy 76 24.4 70 21.1 82 82 N N/A 30.19 1022 10 16 N/A
12:48 pm 12:48 Cloudy 79 26 72 22 79 79 N N/A 30.18 1022 10 16 N/A
12:52 pm 12:52 Cloudy 78 25.6 72 22.2 82 82 N N/A 30.17 1022 10 16 N/A
1:52 pm 13:52 Cloudy 80 26.7 71 21.7 74 74 N N/A 30.16 1021 10 16 N/A
2:30 pm 14:30 Cloudy 82 27.8 72 22.2 72 72 E 5 7 30.14 1021 10 16 N/A
2:52 pm 14:52 Cloudy 83 28.3 71 21.7 67 67 ENE 5 7 30.13 1020 10 16 N/A
3:04 pm 15:04 Mostly Cloudy 85 29.4 73 22.8 68 68 ENE 8 13 30.12 1020 10 16 N/A
3:07 pm 15:07 Mostly Cloudy 84 28.9 72 22.2 67 67 NE 8 13 30.12 1020 10 16 N/A
3:40 pm 15:40 Cloudy with Heavy Rain 78 25.6 73 22.8 85 85 ESE 10 17 30.12 1020 5 8 0.02 0.51
3:52 pm 15:52 Cloudy with Light Rain 78 25.6 73 22.8 85 85 ESE 6 9 30.12 1020 10 16 0.10 2.54
4:52 pm 16:52 Cloudy with Light Rain 79 26.1 74 23.3 85 85 ENE 5 7 30.11 1020 10 16 0.01 0.25
5:52 pm 17:52 Cloudy with Light Rain 77 25 73 22.8 88 88 SSE 10 17 30.12 1020 8 13 0.00 0.00
5:56 pm 17:56 Cloudy with Heavy Rain 77 25 72 22.2 85 85 SE 13 20 30.13 1020 5 8 0.02 0.51
6:21 pm 18:21 Cloudy with Light Rain 76 24.4 73 22.8 91 91 SE 6 9 30.12 1020 8 13 0.13 3.30
6:52 pm 18:52 Cloudy with Light Rain 77 25 72 22.2 85 85 SSE 7 11 30.12 1020 10 16 0.16 4.06
7:52 pm 19:52 Cloudy with Light Rain 76 24.4 71 21.7 85 85 SSE 3 6 30.13 1020 10 16 0.01 0.25
8:52 pm 20:52 Cloudy 76 24.4 71 21.7 85 85 SE 5 7 30.13 1020 10 16 0.00 0.00
9:52 pm 21:52 Cloudy 76 24.4 72 22.2 88 88 ESE 6 9 30.14 1021 10 16 N/A
9:59 pm 21:59 Cloudy 76 24.4 72 22.2 88 88 ESE 7 11 30.14 1021 10 16 N/A
10:06 pm 22:06 Cloudy 76 24.4 72 22.2 88 88 ESE 7 11 30.14 1021 10 16 N/A
10:52 pm 22:52 Cloudy 77 25 73 22.8 88 88 E 10 17 30.13 1020 10 16 0.01 0.25
10:54 pm 22:54 Cloudy with Light Rain 77 25 73 22.8 88 88 ESE 10 17 30.14 1021 10 16 0.00 0.00
11:12 pm 23:12 Cloudy with Light Rain 77 25 73 22.8 88 88 SE 9 15 30.14 1021 10 16 0.00 0.00
11:21 pm 23:21 Cloudy with Nearby Thunderstorms 77 25 73 22.8 88 88 SE 9 15 30.13 1020 10 16 0.00 0.00
11:40 pm 23:40 Cloudy 77 25 73 22.8 88 88 S 8 13 30.14 1021 10 16 0.00 0.00
11:47 pm 23:47 Cloudy with Nearby Thunderstorms 77 25 73 23 89 89 SSE 8 13 30.14 1021 10 16 0.00 0.00
11:52 pm 23:52 Cloudy with Nearby Thunderstorms 77 25 73 22.8 88 88 S 8 13 30.14 1021 10 16 0.00 0.00

Powered by AerisWeather